Location: Sternwarte_Laufen
(47.9344°N, 12.9346°E)
Time: 15:16:51
(UTC+02:00)

ISS - Pass Details

Date: 21 March 2017
Orbit: 399 x 409 km, 51.6° (Epoch: 29 March)

Event Time Altitude Azimuth Distance (km) Brightness Sun altitude
Exits shadow 04:36:31 42° 251° (WSW) 596 -3.5 -16.1°
Maximum altitude 04:37:10 50° 211° (SSW) 527 -3.6 -16.0°
Drops below altitude 10° 04:40:23 10° 135° (SE) 1,471 -0.6 -15.5°
Sets 04:42:29 0° 130° (SE) 2,330 0.5 -15.1°
